[[{"header":{"parameterUnit":"m.s-1","parameterCategory":1,"la1":30.2991,"la2":30.254,"lo1":-89.0895,"lo2":-89.0444,"dy":0.0017,"dx":0.0017,"nx":28,"ny":28,"refTime":"2024-02-05T03:00:00:Z","depth":0,"parameterNumber":2,"parameterNumberName":"U-component_of_WINDS"},"data":[0,0,0,0,0,0,0,0,0,0,0,0,0,0,0,0,0,0,0,0,0,0,0,0,0,0,0,0,0,0,0,0,0,0,0,0,0,0,0,0,0,0,0,0,0,0,0,0,0,0,0,0,0,0,0,0,0,0,1.4993,1.4993,0,1.5032,1.5033,1.5033,1.5013,1.5012,1.5011,1.501,1.505,1.5052,1.5054,0,0,0,0,0,0,0,0,0,0,0,0,0,1.49,1.4902,1.4993,1.4993,1.4994,1.5032,1.5033,1.5033,1.5013,1.5012,1.5011,1.5009,1.5049,1.5052,1.5054,0,0,0,0,0,0,0,0,0,0,0,0,0,1.494,1.4902,1.4992,1.4988,1.4988,1.5032,1.5033,1.5034,1.5013,1.5012,1.501,1.5009,1.5049,1.5052,1.5055,1.5105,0,0,1.5064,1.5065,0,0,0,0,0,0,0,0,1.4938,1.4943,1.4988,1.4988,1.4989,1.5016,1.5015,1.5058,1.5014,1.5004,1.501,1.5008,1.504,1.5044,1.5055,1.5107,1.5109,1.5064,1.5066,1.5068,1.5068,0,0,0,0,0,0,0,1.4935,1.4941,1.5008,1.4989,1.4989,1.4984,1.4988,1.5023,1.503,1.5005,1.5003,1.5008,1.504,1.5052,1.5055,1.5109,1.5064,1.5067,1.5069,1.507,1.5208,1.5209,0,0,0,0,0,0,1.4932,1.4939,1.5007,1.5009,1.4959,1.4987,1.4992,1.5009,1.503,1.5032,1.5009,1.5007,1.5047,1.5052,1.5057,1.5119,1.5068,1.507,1.5072,1.5206,1.5208,1.521,0,0,0,0,0,0,1.493,1.4938,1.5005,1.4974,1.4982,1.4991,1.501,1.501,1.5022,1.5034,1.5035,1.502,1.5046,1.5052,1.5094,1.512,1.5072,1.5075,1.5204,1.5207,1.5209,1.5243,0,0,0,0,0,0,1.4928,1.4938,1.4957,1.4975,1.4984,1.5042,1.5012,1.5012,1.5028,1.5025,1.5044,1.5046,1.5045,1.5089,1.5097,1.5123,1.5077,1.5201,1.5205,1.5208,1.524,1.5246,1.5252,0,0,0,0,0,1.4924,1.4964,1.4958,1.4966,1.5008,1.5043,1.5049,1.5048,1.503,1.505,1.5057,1.5045,1.5116,1.5094,1.5102,1.513,1.52,1.5204,1.5208,1.5237,1.5245,1.5252,0,0,0,0,0,0,1.4949,1.4966,1.496,1.5006,1.5024,1.504,1.5064,1.5056,1.5079,1.5075,1.5073,1.5077,1.5121,1.5129,1.5105,1.5181,1.5155,1.5161,1.5174,1.5182,1.5189,1.5186,1.508,0,0,0,0,0,1.496,1.4987,1.5001,1.504,1.505,1.5056,1.5071,1.5069,1.5087,1.5094,1.5104,1.5122,1.5148,1.5165,1.519,1.524,1.5245,1.5264,1.527,1.5275,1.5281,1.531,1.5319,1.5223,1.5223,1.5223,0,0,1.4982,1.4995,1.5012,1.5046,1.5059,1.5088,1.5062,1.5093,1.5114,1.5098,1.5139,1.5147,1.5166,1.5213,1.5234,1.5222,1.5308,1.5281,1.5285,1.5287,1.5315,1.5324,1.5332,1.5226,1.5226,1.5225,0,0,1.5038,1.505,1.5086,1.51,1.512,1.5124,1.5133,1.5151,1.5156,1.5197,1.5186,1.5211,1.5256,1.5271,1.5285,1.5349,1.5339,1.5357,1.5391,1.5419,1.5427,1.5433,1.5458,1.5467,1.5362,1.5362,1.5362,0,1.5064,1.5107,1.5105,1.5138,1.5153,1.5141,1.5177,1.5191,1.5218,1.523,1.5215,1.5273,1.5285,1.5336,1.5352,1.5362,1.5373,1.5355,1.5426,1.5433,1.5439,1.5462,1.5471,1.5364,1.5364,1.5364,1.5363,0,1.5138,1.5168,1.5194,1.5222,1.5241,1.5275,1.5279,1.5298,1.5295,1.5301,1.5343,1.5357,1.5386,1.5397,1.5394,1.5449,1.544,1.5426,1.54,1.545,1.5472,1.5481,1.5367,1.5366,1.5366,1.5365,0,0,1.521,1.5238,1.5248,1.5261,1.5283,1.5307,1.5341,1.5369,1.5387,1.5406,1.5436,1.5475,1.5462,1.5478,1.5476,1.5501,1.5553,1.5484,1.5484,1.5497,1.5616,1.5628,1.5638,1.5546,1.5548,1.5549,1.5615,0,1.5269,1.533,1.533,1.5386,1.5415,1.5404,1.5434,1.5451,1.5458,1.5483,1.549,1.5519,1.5499,1.5509,1.5533,1.5541,1.5577,1.5536,1.5575,1.5576,1.5572,1.5649,1.5662,1.5723,1.5623,1.5625,1.5626,0,1.5346,1.5369,1.5429,1.5449,1.5461,1.5488,1.5515,1.5539,1.5559,1.5562,1.558,1.5575,1.5611,1.5584,1.5634,1.5606,1.5622,1.5629,1.5631,1.5636,1.5605,1.5657,1.5742,1.5752,1.5639,1.5638,1.5637,0,1.5395,1.5441,1.5483,1.5494,1.5518,1.5538,1.5549,1.5567,1.5585,1.5608,1.562,1.5647,1.5662,1.5684,1.5687,1.5666,1.5738,1.571,1.5742,1.5743,1.5759,1.5758,1.5849,1.5767,1.5766,1.5766,1.5766,0,1.5462,1.5499,1.5506,1.5532,1.5573,1.5573,1.5615,1.5624,1.5641,1.5669,1.566,1.5687,1.5688,1.5716,1.5718,1.576,1.5767,1.5771,1.5771,1.5773,1.5772,1.5784,1.578,1.5769,1.5768,1.5768,1.5767,0,1.5524,1.553,1.5575,1.5595,1.56,1.563,1.5647,1.5672,1.5678,1.5714,1.5723,1.5732,1.5764,1.5769,1.5806,1.5808,1.5859,1.5854,1.5853,1.5853,1.5885,1.5883,1.5988,1.6002,1.5909,1.591,1.5911,0,1.5567,1.5595,1.5618,1.5637,1.5649,1.5679,1.5697,1.5698,1.5718,1.5744,1.5766,1.5798,1.5823,1.5875,1.5885,1.5914,1.5911,1.5946,1.5915,1.5916,1.5914,1.5912,1.5916,1.5952,1.5953,1.5954,1.5954,0,1.5643,1.5645,1.5672,1.5701,1.5723,1.5745,1.5766,1.5782,1.5786,1.5809,1.5842,1.5862,1.59,1.5932,1.5961,1.5972,1.5965,1.5964,1.5973,1.5975,1.5974,1.5977,1.5871,1.5962,1.5961,1.596,1.596,1.596,1.5698,1.5724,1.5745,1.5775,1.5792,1.5812,1.5837,1.5847,1.5875,1.5907,1.5906,1.5943,1.5963,1.6002,1.6015,1.6044,1.6033,1.6046,1.605,1.6053,1.6058,1.5969,1.6049,1.6049,1.6049,1.6049,1.6049,0,1.5776,1.5789,1.5817,1.5848,1.5872,1.5863,1.5886,1.5907,1.594,1.596,1.5985,1.6024,1.6055,1.6069,1.61,1.6121,1.6118,1.6129,1.6128,1.6131,1.6065,1.6055,1.6131,1.613,1.613,1.613,1.613,1.613,1.5819,1.5863,1.5867,1.5919,1.5932,1.5968,1.5983,1.6002,1.6018,1.6062,1.6088,1.6097,1.6115,1.6147,1.6175,1.6179,1.6191,1.6204,1.6206,1.6144,1.6136,1.6128,1.6118,1.6206,1.6206,1.627,1.627,1.6271]},{"header":{"parameterUnit":"m.s-1","parameterCategory":1,"la1":30.2991,"la2":30.254,"lo1":-89.0895,"lo2":-89.0444,"dy":0.0017,"dx":0.0017,"nx":28,"ny":28,"refTime":"2024-02-05T03:00:00:Z","depth":0,"parameterNumber":3,"parameterNumberName":"V-component_of_WINDS"},"data":[0,0,0,0,0,0,0,0,0,0,0,0,0,0,0,0,0,0,0,0,0,0,0,0,0,0,0,0,0,0,0,0,0,0,0,0,0,0,0,0,0,0,0,0,0,0,0,0,0,0,0,0,0,0,0,0,0,0,-3.323,-3.323,0,-3.3302,-3.3303,-3.3304,-3.3339,-3.3339,-3.3339,-3.3339,-3.3408,-3.341,-3.3412,0,0,0,0,0,0,0,0,0,0,0,0,0,-3.312,-3.3122,-3.323,-3.3231,-3.3231,-3.3302,-3.3303,-3.3304,-3.3339,-3.3339,-3.3339,-3.3339,-3.3408,-3.341,-3.3412,0,0,0,0,0,0,0,0,0,0,0,0,0,-3.3177,-3.3122,-3.3229,-3.3257,-3.3261,-3.3302,-3.3303,-3.3305,-3.3339,-3.3339,-3.3339,-3.3339,-3.3407,-3.341,-3.3413,-3.343,0,0,-3.3421,-3.3422,0,0,0,0,0,0,0,0,-3.3174,-3.3181,-3.3252,-3.3255,-3.3259,-3.3312,-3.329,-3.3347,-3.3339,-3.3309,-3.3339,-3.3339,-3.3376,-3.3381,-3.3395,-3.3434,-3.3437,-3.3421,-3.3423,-3.3424,-3.3425,0,0,0,0,0,0,0,-3.317,-3.3178,-3.3258,-3.3253,-3.3258,-3.3266,-3.3274,-3.3301,-3.3341,-3.3311,-3.3314,-3.3323,-3.3378,-3.3392,-3.3397,-3.3438,-3.3421,-3.3424,-3.3426,-3.3427,-3.35,-3.35,0,0,0,0,0,0,-3.3162,-3.3175,-3.3256,-3.326,-3.3216,-3.3268,-3.3277,-3.3295,-3.3341,-3.3349,-3.3323,-3.3324,-3.3387,-3.3393,-3.3399,-3.3427,-3.3424,-3.3427,-3.3428,-3.35,-3.35,-3.35,0,0,0,0,0,0,-3.3159,-3.3169,-3.3253,-3.3219,-3.323,-3.327,-3.3289,-3.3296,-3.3311,-3.335,-3.3357,-3.333,-3.3387,-3.3395,-3.3424,-3.3429,-3.3428,-3.3431,-3.3499,-3.35,-3.35,-3.3479,0,0,0,0,0,0,-3.3156,-3.3168,-3.3175,-3.3218,-3.3232,-3.3277,-3.329,-3.3298,-3.3316,-3.3318,-3.3358,-3.3365,-3.3388,-3.342,-3.3427,-3.3433,-3.3433,-3.3499,-3.35,-3.35,-3.348,-3.3479,-3.3478,0,0,0,0,0,-3.3152,-3.3164,-3.3175,-3.3184,-3.3241,-3.3277,-3.3284,-3.3312,-3.3316,-3.3324,-3.335,-3.3364,-3.3428,-3.3422,-3.343,-3.3438,-3.3499,-3.3499,-3.35,-3.348,-3.3479,-3.3478,0,0,0,0,0,0,-3.3116,-3.317,-3.3183,-3.3209,-3.3239,-3.3283,-3.3293,-3.3309,-3.3337,-3.3338,-3.3369,-3.3378,-3.3405,-3.3424,-3.3417,-3.346,-3.3465,-3.3467,-3.3447,-3.3446,-3.3445,-3.344,-3.3435,0,0,0,0,0,-3.3112,-3.3137,-3.3182,-3.3201,-3.3216,-3.3252,-3.3268,-3.3288,-3.3319,-3.3331,-3.3358,-3.3387,-3.3414,-3.3431,-3.3458,-3.3483,-3.3494,-3.3492,-3.3492,-3.3491,-3.3493,-3.3511,-3.3512,-3.3502,-3.3502,-3.3502,0,0,-3.3102,-3.3135,-3.3148,-3.3195,-3.322,-3.3246,-3.3262,-3.3287,-3.3307,-3.3334,-3.3364,-3.3386,-3.342,-3.3448,-3.3462,-3.3465,-3.3498,-3.3492,-3.3491,-3.3493,-3.3512,-3.3513,-3.3514,-3.3503,-3.3503,-3.3502,0,0,-3.3098,-3.3124,-3.3145,-3.3172,-3.3211,-3.3236,-3.3241,-3.3284,-3.3301,-3.3332,-3.3354,-3.3378,-3.3422,-3.3448,-3.3466,-3.3478,-3.3492,-3.3485,-3.3481,-3.3499,-3.35,-3.3501,-3.3508,-3.351,-3.3487,-3.3487,-3.3487,0,-3.3081,-3.3121,-3.3153,-3.318,-3.3201,-3.323,-3.3252,-3.3275,-3.332,-3.3334,-3.3338,-3.3399,-3.3423,-3.346,-3.3463,-3.3476,-3.3484,-3.348,-3.3498,-3.3499,-3.35,-3.3507,-3.3509,-3.3486,-3.3486,-3.3486,-3.3486,0,-3.31,-3.3128,-3.314,-3.3187,-3.3209,-3.3232,-3.3269,-3.3288,-3.3306,-3.3331,-3.3365,-3.3396,-3.3432,-3.3442,-3.3458,-3.3482,-3.3483,-3.3492,-3.3497,-3.35,-3.3507,-3.351,-3.3484,-3.3485,-3.3485,-3.3485,0,0,-3.3072,-3.3141,-3.3145,-3.3168,-3.3216,-3.3238,-3.3265,-3.3302,-3.3319,-3.335,-3.3374,-3.3414,-3.3424,-3.3445,-3.3465,-3.3481,-3.3492,-3.3488,-3.349,-3.349,-3.3524,-3.3518,-3.3521,-3.3503,-3.3503,-3.3504,-3.3522,0,-3.3076,-3.3127,-3.3159,-3.3196,-3.3224,-3.3255,-3.3279,-3.3311,-3.3336,-3.3363,-3.339,-3.3419,-3.3428,-3.3442,-3.3459,-3.3487,-3.35,-3.3486,-3.3526,-3.3527,-3.3518,-3.3524,-3.3517,-3.3532,-3.3524,-3.3525,-3.3525,0,-3.3087,-3.3122,-3.3163,-3.3213,-3.3226,-3.3246,-3.3286,-3.3312,-3.335,-3.3367,-3.3394,-3.3415,-3.3445,-3.3449,-3.3492,-3.3482,-3.35,-3.3517,-3.3519,-3.3524,-3.3527,-3.3531,-3.3538,-3.3541,-3.3529,-3.3529,-3.3529,0,-3.3066,-3.3123,-3.3156,-3.3175,-3.3233,-3.3248,-3.3272,-3.331,-3.3333,-3.3367,-3.3382,-3.3418,-3.3438,-3.3466,-3.3498,-3.3497,-3.3539,-3.3544,-3.3555,-3.3554,-3.3562,-3.3562,-3.3574,-3.3572,-3.3572,-3.3572,-3.3572,0,-3.3068,-3.3093,-3.3149,-3.3169,-3.3199,-3.3236,-3.3264,-3.3291,-3.3326,-3.3353,-3.338,-3.3404,-3.3444,-3.3474,-3.3498,-3.3532,-3.354,-3.3556,-3.3562,-3.3554,-3.3552,-3.3567,-3.3567,-3.3572,-3.3572,-3.3572,-3.3572,0,-3.3049,-3.3087,-3.3127,-3.318,-3.3195,-3.3214,-3.326,-3.3282,-3.331,-3.3344,-3.3354,-3.3397,-3.3434,-3.3469,-3.3516,-3.3533,-3.3568,-3.3575,-3.3556,-3.356,-3.357,-3.357,-3.3593,-3.3599,-3.3591,-3.3591,-3.3591,0,-3.3048,-3.3069,-3.3127,-3.3148,-3.3174,-3.3206,-3.3231,-3.327,-3.3294,-3.3342,-3.3358,-3.3398,-3.3432,-3.3489,-3.3525,-3.3562,-3.3572,-3.3578,-3.3577,-3.357,-3.3575,-3.3574,-3.3578,-3.3577,-3.3577,-3.3577,-3.3577,0,-3.3044,-3.3064,-3.3098,-3.3142,-3.3171,-3.3206,-3.3242,-3.3257,-3.3303,-3.3329,-3.3369,-3.3395,-3.3447,-3.3487,-3.353,-3.3555,-3.3574,-3.3577,-3.3582,-3.3575,-3.3564,-3.3573,-3.3556,-3.3576,-3.3576,-3.3576,-3.3576,-3.3576,-3.3036,-3.3057,-3.3103,-3.3142,-3.3175,-3.3209,-3.3234,-3.3267,-3.3302,-3.3349,-3.3369,-3.341,-3.3452,-3.3512,-3.3537,-3.357,-3.3574,-3.358,-3.3583,-3.3584,-3.3584,-3.3558,-3.3578,-3.3578,-3.3578,-3.3578,-3.3578,0,-3.3035,-3.3067,-3.3103,-3.3155,-3.3187,-3.3206,-3.3248,-3.3273,-3.3309,-3.3347,-3.3382,-3.343,-3.347,-3.351,-3.3553,-3.3571,-3.3582,-3.3581,-3.3581,-3.3587,-3.3576,-3.3569,-3.3573,-3.3573,-3.3573,-3.3573,-3.3573,-3.3573,-3.3038,-3.3077,-3.3103,-3.3159,-3.3191,-3.3234,-3.3257,-3.3289,-3.332,-3.3374,-3.3408,-3.3436,-3.3476,-3.3522,-3.356,-3.3571,-3.3586,-3.3584,-3.3598,-3.3587,-3.3587,-3.3587,-3.3581,-3.3587,-3.3587,-3.3606,-3.3606,-3.3606]}]]